Hourly Weather Roundup
Issued by NWS Central Illinois

Home | Current Version | Previous Version | Text Only | Print | Product List | Glossary On
Versions: 1 2 3 4 5 6 7 8 9 10 11 12 13 14 15 16 17 18 19 20 21 22 23 24 25 26 27 28 29 30 31 32 33 34 35 36 37 38 39 40 41 42 43 44 45 46 47 48 49 50
000
NZUS43 KILX 262310
HWRILX

AREA WEATHER ROUNDUP
NATIONAL WEATHER SERVICE, LINCOLN IL
500 PM CST FRI DEC 26 2014


CITY           SKY/WX    TMP DP  RH WIND       PRES   REMARKS
BLOOMINGTON    PTCLDY    47  44  89 S9        30.03R
CHAMPAIGN      PTCLDY    45  42  89 S8        30.05S
DECATUR        CLEAR     49  42  77 S10       30.05R
FLORA          PTCLDY    50  43  76 S12       30.10S
GALESBURG      CLEAR     46  40  78 S5        29.98R
JACKSONVILLE   MOCLDY    55  44  68 SE8       29.99S
LACON          PTCLDY    46  38  73 SE5       29.99S
LAWRENCEVILLE  PTCLDY    49  43  80 S12       30.12S
LITCHFIELD     MOCLDY    50  43  76 S12       30.03S
$$


CITY           SKY/WX    TMP DP  RH WIND       PRES   REMARKS
LINCOLN        PTCLDY    50  43  78 S10       30.02S
MACOMB         PTCLDY    47  41  78 CALM      30.00R
MATTOON        PTCLDY    49  43  80 S7        30.06S
MT CARMEL AP   PTCLDY    52  43  71 S9        30.12S
OLNEY-NOBLE AP MOCLDY    50  43  76 S9        30.10F
PARIS          MOCLDY    45  42  91 S7        30.08S
PEORIA         MOCLDY    50  41  71 S8        29.99S
PONTIAC        CLOUDY    50  45  81 S10       30.03R
RANTOUL        CLOUDY    49  46  86 S9        30.05S
ROBINSON       MOCLDY    50  42  73 S10       30.11S
SPRINGFIELD    PTCLDY    50  42  74 S10       30.03R
TAYLORVILLE    CLEAR     48  43  81 S9        30.04R
$$

...REGIONAL REPORTS...


CITY           SKY/WX    TMP DP  RH WIND       PRES   REMARKS
CHICAGO O`HARE MOCLDY    46  38  73 SW5       30.00R
KANKAKEE       PTCLDY    46  42  86 S8        30.04S
MOLINE         PTCLDY    48  37  65 S7        29.96R
MOUNT VERNON   MOCLDY    50  41  71 S8        30.11R
PITTSFIELD     CLOUDY    54  45  71 SE7       29.98F
QUINCY         CLOUDY    52  42  69 S5        29.95F
ROCKFORD       MOCLDY    45  37  73 S6        29.99S
$$


CITY           SKY/WX    TMP DP  RH WIND       PRES   REMARKS
BURLINGTON     CLOUDY    50  41  71 S7        29.96R
CEDAR RAPIDS   MOCLDY    40  34  79 SW3       29.95R
DES MOINES     CLOUDY    35  31  85 N6        29.99R WCI  30
KIRKSVILLE     CLOUDY    51  43  74 CALM      29.93F
OTTUMWA        CLOUDY    42  35  76 NW8       29.96R
ST LOUIS       MOCLDY    58  43  57 S12       30.01F
$$


CITY           SKY/WX    TMP DP  RH WIND       PRES   REMARKS
TERRE HAUTE    CLOUDY    48  41  76 S8        30.10S
EVANSVILLE     MOCLDY    53  41  63 S5        30.15R
INDIANAPOLIS   MOCLDY    45  39  79 S7        30.10S
LAFAYETTE      MOCLDY    47  40  76 S9        30.08R
MADISON        MOCLDY    42  34  73 S3        29.96R
MILWAUKEE      MOCLDY    43  34  70 CALM      30.00R
$$





USA.gov is the U.S. government's official web portal to all federal, state and local government web resources and services.